This is the latest recevied weather packets stored in our database for station/object DL2RXE-13. If no packets are shown the sender has not sent any weather packets the latest 10 day(s).
| Time | Temp. | Humidity | Pressure | Rain* | Wind** | Luminosity | Snow |
|---|---|---|---|---|---|---|---|
| 1778002230 | 17.78° C | 76% | 1007.1 hPa | 0 mm | - | 33 W/m² | - |
| 1778001631 | 18.33° C | 72% | 1007.2 hPa | 0 mm | - | 46 W/m² | - |
| 1777989644 | 19.44° C | 66% | 1008.3 hPa | 0 mm | - | 250 W/m² | - |
| 1777988442 | 19.44° C | 66% | 1008.5 hPa | 0 mm | - | 263 W/m² | - |
| 1777987243 | 19.44° C | 66% | 1008.6 hPa | 0 mm | - | 271 W/m² | - |
| 1777986642 | 19.44° C | 68% | 1008.7 hPa | 0 mm | - | 220 W/m² | - |
| 1777986052 | 18.89° C | 68% | 1008.7 hPa | 0 mm | - | 210 W/m² | - |
| 1777984848 | 18.89° C | 70% | 1009 hPa | 0 mm | - | 254 W/m² | - |
| 1777982429 | 18.33° C | 76% | 1009.3 hPa | 0 mm | - | 459 W/m² | - |
| 1777980629 | 17.22° C | 83% | 1009.6 hPa | 0 mm | - | 309 W/m² | - |
| 1777980029 | 16.67° C | 86% | 1009.6 hPa | 0 mm | - | 311 W/m² | - |
| 1777978829 | 16.11° C | 88% | 1009.9 hPa | 0 mm | - | 168 W/m² | - |
| 1777976429 | 15.56° C | 88% | 1009.7 hPa | 0 mm | - | 78 W/m² | - |
| 1777972230 | 15.56° C | 87% | 1009.7 hPa | 0 mm | - | 95 W/m² | - |
| 1777970467 | 15.56° C | 85% | 1009.8 hPa | 0 mm | - | 56 W/m² | - |
| 1777967467 | 15° C | 89% | 1010 hPa | 0 mm | - | 164 W/m² | - |
| 1777963862 | 13.89° C | 90% | 1010.1 hPa | 0 mm | - | 52 W/m² | - |
| 1777947631 | 13.89° C | 84% | 1010.9 hPa | 0 mm | - | 0 W/m² | - |
| 1777945829 | 14.44° C | 83% | 1010.9 hPa | 0 mm | - | 0 W/m² | - |
| 1777938029 | 13.89° C | 86% | 1011.9 hPa | 0 mm | - | 0 W/m² | - |
| 1777937429 | 13.89° C | 85% | 1011.7 hPa | 0 mm | - | 0 W/m² | - |
| 1777932030 | 13.89° C | 85% | 1012.3 hPa | 0 mm | - | 0 W/m² | - |
| 1777926691 | 15.56° C | 79% | 1012.5 hPa | 0 mm | - | 0 W/m² | - |
| 1777922443 | 16.67° C | 73% | 1012.2 hPa | 0 mm | - | 0 W/m² | - |
| 1777921867 | 16.67° C | 76% | 1012 hPa | 0 mm | - | 0 W/m² | - |
* Rain latest hour (hover to see other rain measurements)
** Current wind speed in m/s (hover to see current wind gust speed)